Location: Newark
(49.5667°N, 1.1667°E)
Time: 02:27:35
(UTC+00:00)

N. Korean satellite - Visible Passes

Search period start: 22 September 2020 00:00
Search period end: 02 October 2020 00:00
Orbit: 455 x 503 km, 97.2° (Epoch: 21 September)

Date Brightness Start Highest point End Pass type
(mag) Time Alt. Az. Time Alt. Az. Time Alt. Az.
22 Sep 8.6 05:04:28 10° NNE 05:07:51 34° E 05:11:11 10° SSE visible
23 Sep 9.7 04:39:03 10° NE 04:41:39 18° E 04:44:14 10° SE visible
26 Sep 9.2 04:53:58 10° NE 04:57:05 26° E 05:00:09 10° SSE visible
27 Sep 9.9 04:28:51 10° NE 04:30:51 14° E 04:32:49 10° ESE visible
29 Sep 8.3 05:09:01 10° NNE 05:12:27 38° E 05:15:48 10° SSE visible
30 Sep 9.6 04:43:31 10° NE 04:46:16 20° E 04:48:58 10° SE visible
01 Oct 10.3 04:19:09 10° ENE 04:19:58 11° E 04:20:47 10° E visible
